Location: Bruderhein
(53.8035°N, 112.9265°W)
Time: 08:42:14
(UTC+00:00)

N. Korean satellite - Pass Details

Date: 05 December 2022
Orbit: 407 x 444 km, 97.3° (Epoch: 28 January)

Event Time Altitude Azimuth Distance (km) Brightness Sun altitude
Rises 00:56:57 0° 207° (SSW) 2,467 10.9 -14.3°
Reaches altitude 10° 00:59:35 10° 230° (SW) 1,610 10.3 -14.7°
Maximum altitude 01:01:48 16° 270° (W) 1,294 9.8 -15.0°
Drops below altitude 10° 01:04:03 10° 310° (NW) 1,633 9.7 -15.3°
Sets 01:06:45 0° 333° (NNW) 2,521 10.3 -15.7°
